Location: Madrid
(40.4000°N, 3.6830°W)
Time: 07:55:22
(UTC+02:00)

ISS - Pass Details

Date: 15 October 2017
Orbit: 400 x 408 km, 51.6° (Epoch: 24 October)

Event Time Altitude Azimuth Distance (km) Brightness Sun altitude
Rises 21:33:13 0° 289° (WNW) 2,324 1.4 -23.3°
Reaches altitude 10° 21:36:04 10° 262° (W) 1,461 0.0 -23.8°
Maximum altitude 21:37:48 14° 230° (SW) 1,255 -0.9 -24.2°
Enters shadow 21:38:43 13° 212° (SSW) 1,313 -1.0 -24.3°
